#timestamp,LO_Frequency,Hit,StdDev 
1502424015.7,286047001.7,N,1.7
1502424035.5,286047001.5,N,1.7
1502424055.4,286047002.0,N,1.6
1502424075.2,286047002.0,N,1.6
1502424095.1,286047005.8,Y,0.0
1502424096.0,286047005.8,P,2.2
1502424115.8,286046999.7,N,2.6
1502424135.6,286047002.0,N,2.2
1502424155.5,286047002.8,N,2.0
1502424175.3,286047000.2,N,2.0
1502424195.2,286047002.0,N,1.8
1502424215.9,286047002.2,N,1.7
1502424235.7,286047000.9,N,1.7
1502424255.6,286046999.7,N,1.7
1502424275.4,286047000.2,N,1.7
1502424295.3,286046999.7,N,1.7
1502424315.1,286047002.3,N,1.6
1502424316.0,286047002.3,N,1.6
1502424335.8,286047002.6,N,1.6
1502424355.7,286047001.7,N,1.5
1502424375.5,286047001.8,N,1.5
1502424395.4,286047004.1,N,1.5
1502424415.2,286047004.0,N,1.6
1502424435.0,286047003.8,N,1.6
1502424435.9,286047003.8,N,1.6
1502424455.8,286047004.0,N,1.6
1502424475.6,286047002.0,N,1.6
1502424495.5,286047002.1,N,1.6
1502424515.3,286047001.7,N,1.5
1502424535.1,286047001.5,N,1.5
1502424555.9,286047002.1,N,1.5
1502424575.7,286047001.8,N,1.4
1502424595.5,286047004.2,N,1.5
1502424615.4,286047004.0,N,1.5
1502424635.2,286046999.7,N,1.5
1502424655.1,286047002.4,N,1.4
1502424656.0,286047002.4,N,1.3
1502424675.8,286047001.7,N,1.3
1502424695.6,286047001.5,N,1.3
1502424715.5,286047001.4,N,1.3
1502424735.3,286046999.7,N,1.4
1502424755.2,286047002.6,N,1.4
1502424775.9,286047002.6,N,1.3
1502424795.7,286047002.2,N,1.3
1502424815.6,286046999.9,N,1.3
1502424835.4,286047000.2,N,1.3
1502424855.2,286047002.1,N,1.3
1502424875.1,286047002.1,N,1.3
1502424876.0,286047002.1,N,1.3
1502424895.8,286047000.1,N,1.3
1502424915.7,286047000.4,N,1.3
1502424935.5,286047001.9,N,1.3
1502424955.3,286047000.1,N,1.3
1502424975.2,286047000.5,N,1.2
1502424995.0,286046999.8,N,1.2
1502424995.9,286046999.8,N,1.2
1502425015.8,286047000.4,N,1.2
1502425035.6,286047000.2,N,1.2
1502425055.4,286047002.1,N,1.2
1502425075.3,286047002.5,N,1.2
1502425095.1,286047001.5,N,1.2
1502425115.9,286047001.5,N,1.2
1502425135.7,286047002.4,N,1.1
1502425155.5,286047004.4,Y,0.0
1502425175.4,286047002.2,P,0.4
1502425195.2,286047000.0,N,0.9
1502425215.1,286682705.9,P,275268.2
1502425216.0,286047000.4,N,254282.0
1502425235.8,286047000.0,N,236913.3
1502425255.7,286046999.9,N,222450.5
1502425275.5,286047002.2,N,210239.7
1502425295.3,286047002.1,N,199782.8
1502425315.2,286047000.1,N,190711.5
1502425335.0,286047000.2,N,182752.4
1502425335.9,286047000.2,N,175699.6
1502425355.8,286047000.2,N,169396.0
1502425375.6,286046999.7,N,163719.1
1502425395.4,286047000.1,N,158572.8
1502425415.3,286046999.7,N,153879.8
1502425435.1,286047000.4,N,149577.7
1502425455.8,286047011.9,N,145615.4
1502425475.7,286046998.2,N,141950.9
1502425495.5,286047000.9,N,138548.7
1502425515.4,286047000.5,N,135379.0
1502425535.2,286046998.1,N,132416.7
1502425555.0,286047000.1,N,129640.1
1502425555.9,286047000.1,N,127030.6
1502425575.8,286046999.9,N,124572.3
1502425595.6,286047002.7,N,122251.0
1502425615.5,286047000.1,N,120054.6
1502425635.3,286047000.8,N,117972.2
1502425655.1,286047000.3,N,115994.3
1502425675.9,286047000.0,N,114112.6
1502425695.7,286047001.0,N,114112.6
1502425715.6,286047000.7,N,114112.6
1502425735.4,286047000.4,N,114112.6
1502425755.2,286047002.4,N,2.3
1502425775.1,286047000.3,N,2.3
1502425776.0,286047000.3,N,2.3
1502425795.8,286046999.8,N,2.3
1502425815.7,286047000.5,N,2.3
1502425835.5,286047000.2,N,2.3
1502425855.3,286047000.1,N,2.3
1502425875.2,286047000.1,N,2.3
1502425895.0,286047002.7,N,2.3
1502425895.9,286047002.7,N,2.3
1502425915.8,286046999.8,N,2.3
1502425935.6,286046999.9,N,2.3
1502425985.5,286047002.4,E,nan
1502425995.4,286046999.7,N,0.0
1502426015.2,286046998.9,P,0.4
1502426035.1,286046999.6,N,0.4
1502426036.0,286046999.6,N,0.3
1502426055.8,286046998.8,Y,0.0
1502426075.6,286047000.8,P,0.7
1502426095.5,286047001.1,N,0.7
1502426115.3,286047001.0,N,0.7
1502426135.2,286047000.9,N,0.6
1502426155.0,286047001.2,N,0.6
1502426155.9,286047001.2,N,0.6
1502426175.8,286046999.4,N,0.7
1502426195.6,286046998.7,N,0.9
1502426215.4,286046999.4,N,0.9
1502426235.3,286046998.3,N,1.0
1502426255.1,286046996.6,Y,0.0
1502426275.9,286046997.4,P,1.4
1502426295.7,286046999.6,N,1.2
1502426315.5,286046996.5,N,1.5
1502426335.4,286046996.9,N,1.5
1502426355.2,286046998.9,N,1.4
1502426375.0,286046997.3,N,1.3
1502426375.9,286046997.3,N,1.3
1502426395.8,286046997.7,N,1.2
1502426415.6,286046997.8,N,1.1
1502426435.5,286046997.9,N,1.1
1502426455.3,286046997.5,N,1.0
1502426475.1,286046997.0,N,1.0
1502426495.9,286046997.6,N,1.0
1502426515.7,286046997.9,N,1.0
1502426535.6,286046995.0,Y,0.0
1502426555.4,286046999.1,P,0.6
1502426575.2,286046999.5,N,0.7
1502426595.1,286046999.0,N,0.6
1502426596.0,286046999.0,N,0.6
1502426615.8,286046998.9,N,0.5
1502426635.7,286046999.3,N,0.5
1502426655.5,286046998.8,N,0.5
1502426675.3,286046999.5,N,0.5
1502426695.2,286046999.5,N,0.5
1502426715.0,286046996.9,Y,0.0
1502426715.9,286046996.9,P,1.1
1502426735.8,286046998.3,N,0.9
1502426755.6,286046998.4,N,0.8
1502426775.4,286046998.7,N,0.7
1502426795.3,286046998.7,N,0.7
1502426815.1,286046997.2,Y,0.0
1502426835.9,286047000.4,P,1.0
1502426855.7,286047000.8,N,1.1
1502426875.5,286047000.0,N,0.9
1502426895.4,286047001.2,N,1.0
1502426915.2,286046998.4,N,1.1
1502426935.0,286047000.6,N,1.1
1502426935.9,286047000.6,N,1.0
1502426955.8,286047000.0,N,1.0
1502426975.6,286046998.2,N,1.1
1502426995.5,286046998.4,N,1.1
1502427015.3,286046998.3,N,1.1
1502427035.1,286046998.7,N,1.1
1502427055.9,286047000.8,N,1.1
1502427075.7,286047000.2,N,1.1
1502427095.6,286047000.5,N,1.1
1502427115.4,286046998.5,N,1.1
1502427135.2,286046999.9,N,1.0
1502427155.1,286047000.4,N,1.0
1502427156.0,286047000.4,N,1.0
1502427175.8,286047002.7,N,1.2
1502427195.7,286047000.0,N,1.2
1502427215.5,286046998.2,N,1.2
1502427235.3,286047000.7,N,1.2
1502427255.2,286047000.9,N,1.2
1502427275.0,286046998.1,N,1.2
1502427275.9,286042108.4,Y,0.0
1502427295.7,286047000.3,P,0.2
1502427315.6,286047000.4,N,0.3
1502427335.4,286046998.7,P,0.7
1502427355.3,286046998.4,N,0.8
1502427375.1,286046998.4,N,0.9
1502427395.8,286046998.5,N,0.8
1502427415.7,286047000.2,N,0.9
1502427435.5,286047000.1,N,0.8
1502427455.4,286047000.0,N,0.8
1502427475.2,286047002.1,N,1.1
1502427495.0,286046999.8,N,1.0
1502427495.9,286046999.8,N,1.0
1502427515.8,286047000.3,N,1.0
1502427535.6,286047000.3,N,0.9
1502427555.5,286047000.3,N,0.9
1502427575.3,286046998.2,N,1.0
1502427595.1,286046998.3,N,1.0
